Aérodrome :
LOGIN :

S'inscrire | Disclaimer

   EN    FR    IT 

 










Légende :    VFR   VFR Marginal   IFR   IFR Intensif   IFR Très Intensif
Visi : 
Plafond : 
>= 8 km
>= 3000ft
5 à 8 km
1000 à 3000 ft
1500m à 5 km
500 à 1000 ft
800 à 1500m
200 à 500 ft
< 800m
< 200 ft
Symboles :   Orages  Brouillard  Fortes neiges  Fortes précipitations  Vent > 20 kt
SIGMETs :   Divers  Orages  Givrage  Turbulence  Onde Orograph.  Cendres Volcan.







- Altitude de l'aérodrome : 353 ft
- Code IATA : ZAG


LDZA - Zagreb Pleso

DERNIER METAR :
  • 250430Z 21004KT 9999 R23/1300D MIFG NSC 11/09 Q1015 NOSIG

METARs EXPIRÉS :
  • 250400Z 24003KT 9999 MIFG NSC 11/09 Q1015 NOSIG
  • 250330Z 22004KT 9999 MIFG NSC 11/09 Q1015 NOSIG
  • 250300Z 33001KT CAVOK 11/09 Q1015 NOSIG
  • 250230Z VRB02KT CAVOK 11/09 Q1015 NOSIG
  • 250200Z 23003KT CAVOK 12/10 Q1015 NOSIG

TAF TAF LDZA
Valide du 25 à 00h jusqu'au 26 à 00h UTC


242325Z 2500/2600 VRB02KT CAVOK TX28/2513Z TN12/2503Z
BECMG 2507/2509 23008KT
TEMPO 2514/2518 23012KT
ATIS : +385 1 6-259-214
Pas de NOTAMs connus pour ce terrain.



MET'MAP, la Météo Aéronautique d'un coup d'oeil ! - Copyright ORBIFLY Décembre 2007 - Disclaimer

ORBIFLY MET'MAP TEAM :

Programmation & Développement : Alexandra Zaïnal
Conception & Développement : Baudouin d'Aumeries
Co-Programmation & Développement : Marc-Olivier Méhu
Soutien technique & logistique : Manuel Goepfert

Contact : metmap@orbifly.com




SOURCES & CREDITS :

   NOAA